SCP
0 0 0 0 0 0 0 0 0 0 0 0 0 0 0 0 0 0 0 0 0 0 0 0 0 0 0 0 0 0 0 0 0 1 1 1 1 1 1 1 1 1 1 1
0 0 0 0 0 0 0 0 0 0 0 0 0 0 0 0 0 0 0 0 0 0 0 0 0 0 0 0 0 0 0 0 0 1 1 1 1 1 1 1 1 1 1 1
0 0 0 0 0 0 0 0 0 0 0 0 0 0 0 0 0 0 0 0 0 0 0 0 0 0 0 0 0 0 0 0 0 0 1 1 1 1 1 1 1 1 1 1
0 0 0 0 0 0 0 0 0 0 0 0 0 0 0 0 0 0 0 0 0 0 0 0 0 0 0 0 0 0 0 0 0 0 0 0 1 1 1 1 1 1 1 1
0 0 0 0 0 0 0 0 0 0 0 0 0 0 0 0 0 0 0 0 0 0 0 0 0 0 0 0 0 0 0 0 0 0 0 0 0 1 1 1 1 1 1 1
0 0 0 0 0 0 0 0 0 0 0 0 0 0 0 0 0 0 0 0 0 0 0 0 0 0 0 0 0 0 0 0 0 0 0 0 0 0 1 1 1 1 1 1
0 0 0 0 0 0 0 0 0 0 0 0 0 0 0 0 0 0 0 0 0 0 0 0 0 0 0 0 0 0 0 0 0 0 0 0 0 0 0 0 0 0 0 1
0 0 0 0 0 0 0 0 0 0 0 0 0 0 0 0 0 0 0 0 0 0 0 0 0 0 0 0 0 0 0 0 0 0 0 0 0 0 0 0 0 0 0 0
0 0 0 0 0 0 0 0 0 0 0 0 0 0 0 0 0 0 0 0 0 0 0 0 0 0 0 0 0 0 0 0 0 0 0 0 0 0 0 0 0 0 0 0
0 0 0 0 0 0 0 0 0 0 0 0 0 0 0 0 0 0 0 0 0 0 0 0 0 0 0 0 0 0 0 0 0 0 0 0 0 0 0 0 0 0 0 0
0 0 0 0 0 0 0 0 0 0 0 0 0 0 0 0 0 0 0 0 0 0 0 0 0 0 0 0 0 0 0 0 0 0 0 0 0 0 0 0 0 0 0 0
0 0 0 0 0 0 0 0 0 0 0 0 0 0 0 0 0 0 0 0 0 0 0 0 0 0 0 0 0 0 0 0 0 0 0 0 0 0 0 0 0 0 0 0
0 0 0 0 0 0 0 0 0 0 0 0 0 0 0 0 0 0 0 0 0 0 0 0 0 0 0 0 0 0 0 0 0 0 0 0 0 0 0 0 0 0 0 0
0 0 0 0 0 0 0 0 0 0 0 0 0 0 0 0 0 0 0 0 0 0 0 0 0 0 0 0 0 0 0 0 0 0 0 0 0 0 0 0 0 0 0 0
0 0 0 0 0 0 0 0 0 0 0 0 0 0 0 0 0 0 0 0 0 0 0 0 0 0 0 0 0 0 0 0 0 0 0 0 0 0 0 0 0 0 0 0
0 0 0 0 0 0 0 0 0 0 0 0 0 0 0 0 0 0 0 0 0 0 0 0 0 0 0 0 0 0 0 0 0 0 0 0 0 0 0 0 0 0 0 0
0 0 0 0 0 0 0 0 0 0 0 0 0 0 0 0 0 0 0 0 0 0 0 0 0 0 0 0 0 0 0 0 0 0 0 0 0 0 0 0 0 0 0 0
0 0 0 0 0 0 0 0 0 0 0 0 0 0 0 0 0 0 0 0 0 0 0 0 0 0 0 0 0 0 0 0 0 0 0 0 0 0 0 0 0 0 0 0
0 0 0 0 0 0 0 0 0 0 0 0 0 0 0 0 0 0 0 0 0 0 0 0 0 0 0 0 0 0 0 0 0 0 0 0 0 0 0 0 0 0 0 0
0 0 0 0 0 0 0 0 0 0 0 0 0 0 0 0 0 0 0 0 0 0 0 0 0 0 0 0 0 0 0 0 0 0 0 0 0 0 0 0 0 0 0 0
0 0 0 0 0 0 0 0 0 0 0 0 0 0 0 0 0 0 0 0 0 0 0 0 0 0 0 0 0 0 0 0 0 0 0 0 0 0 0 0 0 0 0 0
0 0 0 0 0 0 0 0 0 0 0 0 0 0 0 0 0 0 0 0 0 0 0 0 0 0 0 0 0 0 0 0 0 0 0 0 0 0 0 0 0 0 0 0
0 0 0 0 0 0 0 0 0 0 0 0 0 0 0 0 0 0 0 0 0 0 0 0 0 0 0 0 0 0 0 0 0 0 0 0 0 0 0 0 0 0 0 0
0 0 0 0 0 0 0 0 1 0 0 0 0 0 0 0 0 0 0 0 0 0 0 0 0 0 0 0 0 0 0 0 0 0 0 0 0 0 0 0 0 0 0 0
0 0 0 0 0 0 0 1 1 1 0 0 0 0 0 0 0 0 0 0 0 0 0 0 0 0 0 0 0 0 0 0 0 0 0 0 0 0 0 0 0 0 0 0
0 0 0 0 0 0 1 1 1 1 0 0 0 0 0 0 0 0 0 0 0 0 0 0 0 0 0 0 0 0 0 0 0 0 0 0 0 0 0 0 0 0 0 0
0 0 0 0 0 1 1 1 1 1 1 0 0 0 0 0 0 0 0 0 0 0 0 0 0 0 0 0 0 0 0 0 0 0 0 0 0 0 0 0 0 0 0 0
Wind_Speed
3 2 2 1 1 1 3 6 8 10 11 10 8 9 10 11 13 14 15 15 15 15 15 16 16 16 16 17 17 17 17 18 18 17 17 17 16 16 16 15 15 15 15 15
3 2 2 4 3 3 3 5 8 10 10 7 8 9 11 13 14 15 15 16 16 17 17 17 17 17 17 17 17 17 18 18 18 17 17 17 17 17 16 15 15 14 15 15
4 2 7 6 4 4 5 7 9 11 11 11 12 12 13 14 14 14 16 17 17 17 17 17 17 17 17 17 17 17 17 18 17 17 17 16 17 17 16 15 14 14 14 15
5 4 7 5 3 2 6 9 8 8 10 11 12 13 13 11 10 13 16 17 17 17 17 17 17 17 17 17 17 17 17 17 17 16 16 16 16 16 15 13 13 12 13 14
6 8 6 5 3 2 7 10 4 6 10 12 12 14 9 6 10 14 16 16 16 16 17 17 17 17 17 17 17 17 17 17 16 16 16 16 16 15 13 12 12 11 11 12
6 9 7 3 5 1 5 5 3 6 10 11 12 12 10 13 14 15 15 15 15 16 17 17 16 17 17 17 17 17 17 17 16 16 16 16 15 15 13 12 12 11 11 11
9 9 3 7 5 4 6 7 5 7 9 10 11 11 14 15 15 15 15 16 16 16 15 15 16 16 17 17 17 17 16 16 16 15 15 15 14 12 11 10 11 11 11 10
6 7 0 8 4 3 5 4 5 6 8 9 11 12 13 14 14 15 16 16 16 15 15 15 15 15 16 17 16 16 16 16 15 14 13 12 12 12 11 10 10 10 9 9
4 3 5 4 3 1 3 5 5 6 7 9 11 12 13 14 14 15 15 15 15 15 16 15 15 15 16 16 16 15 15 15 14 14 12 11 11 10 9 8 7 6 6 7
6 5 4 4 5 4 4 5 4 5 7 8 11 12 13 13 13 14 15 15 14 15 16 15 15 15 15 15 15 15 15 14 13 12 12 10 8 7 7 6 6 5 5 6
9 7 5 6 6 5 4 4 4 4 6 8 10 12 12 12 13 13 14 14 14 14 15 16 16 15 15 14 14 15 14 13 12 11 10 9 8 6 6 5 4 5 4 4
7 4 5 2 3 4 4 4 4 5 6 7 8 11 12 12 12 13 14 14 14 14 15 16 15 15 14 13 14 14 12 11 9 9 8 7 7 5 3 5 4 4 5 4
5 3 3 3 4 4 4 3 3 4 6 8 8 9 11 12 12 13 14 14 14 14 15 15 15 15 14 14 14 14 12 11 9 8 7 7 6 6 4 1 2 1 2 2
5 5 5 6 5 5 4 3 3 4 4 6 8 9 10 12 13 14 14 14 14 14 14 14 14 14 14 14 14 14 12 11 9 7 7 7 6 5 4 3 1 1 2 2
10 10 7 5 6 6 5 5 5 5 5 6 7 9 10 12 13 14 13 13 13 14 14 14 14 14 14 14 14 13 11 8 8 7 6 6 6 5 3 3 1 1 3 4
10 10 8 8 8 7 7 6 5 5 5 6 7 9 10 11 12 12 12 12 13 14 13 13 13 14 14 14 13 11 9 9 10 7 6 6 5 4 3 2 2 1 2 3
11 12 12 11 10 9 8 6 4 4 5 6 7 9 10 11 12 12 13 13 12 12 11 12 13 14 14 13 12 9 9 8 9 7 5 5 5 4 3 3 2 2 2 4
11 10 9 9 9 8 7 6 4 4 4 5 7 8 10 11 12 13 13 13 13 12 11 13 15 15 14 13 11 9 8 7 7 6 5 5 5 4 3 3 3 4 3 4
9 8 8 8 7 7 6 5 4 3 3 4 6 8 9 10 11 12 12 12 12 12 13 15 17 14 13 13 14 8 8 8 7 6 5 3 3 3 3 3 3 3 3 2
8 9 9 8 8 7 6 5 4 4 3 4 6 7 8 9 10 11 11 10 8 8 12 14 14 12 12 13 15 8 8 8 7 6 5 4 4 3 3 4 4 3 3 2
8 9 9 9 8 7 6 6 5 4 3 3 5 7 8 9 10 10 10 9 9 11 13 12 10 10 11 13 13 8 7 7 6 5 5 4 4 4 4 4 4 4 3 3
7 8 9 9 8 8 7 6 6 5 4 4 4 6 7 8 9 9 8 7 9 11 10 8 9 12 16 15 7 7 7 7 6 5 4 4 4 4 4 4 4 3 3 2
7 7 8 9 9 8 8 7 7 6 5 4 4 5 6 7 7 7 8 7 8 11 10 7 12 17 19 10 7 7 7 7 6 6 5 4 4 3 3 4 4 3 2 2
7 7 8 8 7 8 9 8 7 6 5 4 3 3 4 5 5 5 6 6 7 10 8 7 11 15 13 7 7 7 7 7 7 6 5 4 4 4 4 4 4 3 3 3
7 8 9 9 9 8 9 8 8 8 7 5 4 2 3 3 4 5 6 7 7 8 8 7 8 11 9 7 7 7 7 7 8 7 5 5 4 4 4 4 4 4 4 4
8 8 7 8 8 7 7 7 7 6 6 5 3 2 1 1 3 4 4 6 8 7 7 6 7 7 7 7 8 8 7 7 7 6 6 5 5 4 4 4 5 4 5 5
9 8 8 8 8 9 8 7 7 7 6 5 4 3 2 1 2 3 4 5 5 6 6 6 6 6 7 7 7 7 7 7 7 7 7 6 5 4 4 4 4 4 4 5
Wind_Direction
38 25 312 331 331 341 345 342 326 331 322 335 348 332 323 316 315 317 319 320 321 320 318 316 314 313 311 309 308 306 302 297 295 293 290 287 283 279 274 269 265 259 252 247
209 197 265 256 244 272 310 320 319 315 322 6 335 316 314 317 319 319 320 322 322 319 318 316 315 313 311 308 307 304 300 297 296 295 292 289 286 281 276 270 266 263 257 250
281 191 261 243 215 263 304 319 317 315 332 336 321 321 321 318 316 320 322 322 320 319 316 315 313 313 309 308 306 303 300 299 297 295 292 292 289 285 280 274 268 261 255 251
289 263 274 62 82 300 300 305 310 308 320 327 322 320 310 306 319 322 320 319 319 317 316 315 314 312 310 309 308 305 302 300 299 297 294 291 288 284 282 278 272 267 262 255
283 284 283 144 169 276 306 305 319 316 321 323 325 309 304 8 340 324 320 318 316 316 316 315 314 316 314 310 309 306 304 303 302 300 296 292 288 284 281 277 271 264 258 254
270 289 296 85 115 89 284 281 77 321 318 323 320 312 335 350 332 324 322 319 318 317 316 316 318 318 313 310 309 307 307 307 304 301 297 293 289 285 280 276 271 267 258 249
269 275 286 102 125 208 285 2 3 321 319 317 320 314 320 324 324 322 320 319 319 318 317 318 319 318 312 310 310 311 310 307 304 302 298 293 287 284 280 275 272 266 261 251
267 271 261 127 169 271 339 354 318 318 318 319 315 313 317 321 322 321 322 322 323 320 319 320 320 317 312 310 313 314 311 307 305 304 300 297 294 289 283 277 270 262 255 251
279 333 89 165 228 322 320 298 312 315 320 318 314 318 322 322 322 322 323 323 323 322 320 321 321 319 314 315 317 315 312 309 308 305 301 298 293 291 288 279 267 259 251 246
255 243 206 211 230 239 250 277 303 309 313 315 315 319 322 322 321 322 323 323 325 323 320 320 321 320 316 316 318 316 312 310 309 307 304 302 295 289 287 285 276 267 258 252
250 255 233 218 225 235 231 247 271 293 309 314 316 317 322 320 322 324 322 324 325 321 319 319 320 319 319 322 321 317 313 310 310 307 306 306 303 295 293 288 286 279 276 267
266 238 234 198 160 197 217 236 265 292 303 312 317 319 320 320 323 322 322 324 323 322 321 319 320 321 324 326 323 318 315 315 314 311 312 314 313 310 277 272 288 268 264 282
262 226 216 146 165 188 211 226 247 275 298 310 317 320 320 320 321 323 324 327 326 324 320 319 322 323 328 330 324 319 316 317 315 315 318 321 322 321 322 247 218 253 253 251
212 201 202 204 198 190 206 213 242 270 292 306 316 320 321 321 323 326 329 328 327 323 319 322 325 326 331 329 324 321 320 318 316 317 321 323 326 327 332 340 8 139 132 122
210 212 219 191 184 183 198 213 243 273 298 310 317 322 325 324 324 326 329 328 327 323 325 328 327 330 332 328 325 323 324 326 325 324 324 326 330 335 343 353 8 122 133 121
210 209 207 199 200 198 206 222 252 284 303 311 319 326 325 323 322 325 331 333 329 326 326 328 329 331 329 326 324 322 323 323 321 324 327 332 339 344 356 9 26 75 104 122
205 205 207 210 208 207 213 227 254 284 299 311 322 323 323 324 326 332 335 336 329 323 329 334 335 333 327 326 326 323 324 326 320 326 338 344 347 354 6 16 44 75 81 80
218 218 206 204 202 199 203 212 227 252 284 309 315 320 325 328 330 332 333 332 327 330 342 342 339 331 328 331 330 324 324 329 338 346 349 357 353 6 21 32 49 74 98 123
211 204 188 182 179 181 188 197 212 239 273 299 312 320 323 326 330 329 330 328 330 337 341 338 332 328 334 337 335 326 328 335 346 353 360 356 347 21 39 49 60 78 90 108
200 188 179 173 172 176 181 186 202 224 252 290 306 316 323 330 332 330 328 325 345 348 333 330 329 335 336 337 332 327 332 339 351 354 0 7 17 32 46 56 63 71 80 83
207 193 185 181 178 181 186 189 205 224 242 275 300 316 324 327 329 330 327 330 349 353 335 325 331 341 337 328 319 331 340 345 352 359 6 15 20 30 42 50 59 65 70 71
226 210 199 190 187 190 190 195 205 219 231 258 292 313 320 323 328 329 328 337 340 349 334 333 344 343 334 324 333 344 348 353 354 1 12 27 36 41 48 52 59 71 76 71
254 230 218 205 199 199 197 200 205 215 230 250 281 306 320 325 326 324 329 350 342 340 328 341 344 338 331 331 346 349 354 359 358 1 9 22 37 47 57 58 63 74 75 73
272 243 231 219 207 209 212 207 204 210 223 238 251 281 300 308 316 334 337 335 341 333 328 345 342 338 331 340 351 354 358 359 355 354 1 19 35 43 49 50 57 64 66 61
281 254 234 219 211 215 216 211 207 207 214 224 233 231 268 310 322 330 331 335 345 335 333 346 348 343 344 351 354 354 359 1 352 347 359 8 22 40 42 39 46 48 51 54
282 259 243 229 227 226 214 207 211 210 213 216 214 208 251 306 313 320 330 337 345 340 340 349 353 352 354 353 354 356 356 353 350 355 5 5 12 23 32 31 38 39 44 47
274 256 240 231 223 222 222 213 215 213 207 208 206 188 193 265 316 337 343 345 349 351 355 356 359 360 358 355 353 356 357 358 357 356 359 1 2 8 19 28 36 38 41 52